Location: Asheville, NC
(35.6000°N, 82.5500°W)
Time: 08:54:59
(UTC-05:00)

Vanguard 2 Rocket - Pass Details

Date: 14 December 2017
Orbit: 556 x 3326 km, 32.9° (Epoch: 17 January)

Event Time Altitude Azimuth Distance (km) Brightness Sun altitude
Exits shadow 02:57:10 20° 170° (S) 4,675 10.4 -54.9°
Drops below altitude 10° 03:00:59 10° 159° (SSE) 5,201 10.8 -54.1°
Sets 03:04:53 0° 151° (SSE) 5,867 11.2 -53.3°
